Location: Gettysburg
(39.8310°N, 77.2310°W)
Time: 17:41:27
(UTC-04:00)

ATLAS 2AS CENTAUR R/B - Visible Passes

Search period start: 22 October 2014 00:00
Search period end: 01 November 2014 00:00
Orbit: 917 x 1296 km, 63.7° (Epoch: 19 October)

Date Brightness Start Highest point End Pass type
(mag) Time Alt. Az. Time Alt. Az. Time Alt. Az.
22 Oct 5.4 02:28:42 12° N 02:28:42 12° N 02:29:27 10° NNE visible
22 Oct 5.2 04:16:43 10° NNW 04:19:08 11° N 04:21:35 10° NNE visible
22 Oct 5.0 06:07:53 10° NNW 06:13:45 21° NNE 06:19:35 10° ENE visible
23 Oct 5.2 03:32:53 12° N 03:33:14 12° N 03:35:49 10° NNE visible
23 Oct 5.2 05:23:20 10° NNW 05:28:09 17° NNE 05:32:59 10° ENE visible
24 Oct 5.4 02:49:39 12° N 02:49:39 12° N 02:50:48 10° NNE visible
24 Oct 5.2 04:38:41 10° NNW 04:42:25 14° NNE 04:46:10 10° NE visible
24 Oct 4.5 06:29:04 10° NNW 06:36:15 34° NE 06:43:19 10° ESE visible
25 Oct 5.3 03:53:53 10° NNW 03:56:34 12° N 03:59:21 10° NNE visible
25 Oct 4.8 05:44:31 10° NNW 05:50:55 25° NE 05:57:17 10° E visible
26 Oct 5.3 03:10:41 11° N 03:10:41 11° N 03:13:04 10° NNE visible
26 Oct 5.1 04:59:58 10° NNW 05:05:26 19° NNE 05:10:52 10° ENE visible
26 Oct 3.7 06:50:19 10° NNW 06:58:18 58° NE 07:06:02 10° SE visible
27 Oct 5.5 02:27:33 10° NNE 02:27:33 10° NNE 02:27:38 10° NNE visible
27 Oct 5.2 04:15:23 10° NNW 04:19:46 15° NNE 04:24:10 10° NE visible
27 Oct 4.2 06:05:42 10° NNW 06:13:15 41° NE 06:20:38 10° ESE visible
28 Oct 5.3 03:31:54 12° N 03:33:59 13° NNE 03:37:19 10° NE visible
28 Oct 4.6 05:21:08 10° NNW 05:28:02 30° NE 05:34:50 10° E visible
29 Oct 5.4 02:48:52 11° N 02:48:52 11° N 02:50:38 10° NNE visible
29 Oct 4.9 04:36:35 10° NNW 04:42:38 22° NNE 04:48:39 10° E visible
29 Oct 3.4 06:27:02 10° NNW 06:35:09 72° NE 06:42:59 10° SE visible
30 Oct 5.1 03:53:23 13° N 03:57:04 17° NNE 04:02:07 10° ENE visible
30 Oct 3.8 05:42:21 10° NNW 05:50:12 50° NE 05:57:49 10° ESE visible
30 Oct 5.0 21:23:34 10° SSW 21:23:38 10° SSW 21:23:38 10° SSW visible
31 Oct 5.3 03:10:31 14° N 03:11:22 14° NNE 03:15:19 10° NE visible
31 Oct 4.3 04:58:00 11° NNW 05:05:05 36° NE 05:12:15 10° ESE visible
31 Oct 3.1 06:48:38 10° NW 06:56:36 63° WSW 07:04:15 10° SSE visible
31 Oct 4.2 20:39:24 10° S 20:41:43 22° S 20:41:43 22° S visible
